| time (UTC) | temp C | wind direction | speed KPH | gust KPH | rain 1hr cm | rain 24hr cm | rain mn cm | humidity % | barometer mb |
| 20260504081328 | 5 | 310 | 0.0 | 0.0 | 0.00 | 0.00 | 0.00 | 63 | 1015.8 |
| 20260504080351 | 5 | 333 | 0.0 | 3.2 | 0.00 | 0.00 | 0.00 | 63 | 1015.7 |
| 20260504070331 | 7 | 336 | 0.0 | 1.6 | 0.00 | 0.00 | 0.00 | 51 | 1015.3 |
| 20260504050336 | 10 | 329 | 0.0 | 17.7 | 0.00 | 0.00 | 0.00 | 42 | 1014.0 |
| 20260504045330 | 10 | 269 | 1.6 | 16.1 | 0.00 | 0.00 | 0.00 | 41 | 1013.9 |
| 20260504044331 | 10 | 305 | 1.6 | 9.7 | 0.00 | 0.00 | 0.00 | 41 | 1013.9 |
| 20260504043336 | 10 | 348 | 1.6 | 16.1 | 0.00 | 0.00 | 0.00 | 41 | 1013.8 |
| 20260504042330 | 10 | 38 | 1.6 | 19.3 | 0.00 | 0.00 | 0.00 | 40 | 1013.6 |
| 20260504041334 | 10 | 298 | 1.6 | 9.7 | 0.00 | 0.00 | 0.00 | 39 | 1013.5 |
| 20260504040334 | 11 | 279 | 1.6 | 14.5 | 0.00 | 0.00 | 0.00 | 38 | 1013.3 |
| 20260504035333 | 11 | 313 | 3.2 | 14.5 | 0.00 | 0.00 | 0.00 | 37 | 1013.3 |
| 20260504034351 | 11 | 298 | 1.6 | 9.7 | 0.00 | 0.00 | 0.00 | 36 | 1013.1 |
| 20260504033327 | 11 | 304 | 1.6 | 14.5 | 0.00 | 0.00 | 0.00 | 35 | 1013.1 |
| 20260504032347 | 11 | 96 | 1.6 | 19.3 | 0.00 | 0.00 | 0.00 | 34 | 1012.9 |
| 20260504031330 | 12 | 248 | 3.2 | 22.5 | 0.00 | 0.00 | 0.00 | 33 | 1012.6 |
| 20260504030413 | 12 | 311 | 1.6 | 17.7 | 0.00 | 0.00 | 0.00 | 34 | 1012.4 |
| 20260504025327 | 12 | 305 | 1.6 | 27.4 | 0.00 | 0.00 | 0.00 | 34 | 1012.2 |
| 20260504024331 | 12 | 283 | 1.6 | 27.4 | 0.00 | 0.00 | 0.00 | 37 | 1012.2 |
| 20260504023412 | 12 | 308 | 3.2 | 16.1 | 0.00 | 0.00 | 0.00 | 39 | 1012.1 |
| 20260504022408 | 12 | 280 | 1.6 | 12.9 | 0.00 | 0.00 | 0.00 | 40 | 1012.0 |
| 20260504021344 | 12 | 323 | 0.0 | 16.1 | 0.00 | 0.00 | 0.00 | 40 | 1012.1 |
| 20260504020352 | 12 | 318 | 1.6 | 16.1 | 0.00 | 0.00 | 0.00 | 40 | 1012.1 |
| 20260504015352 | 13 | 338 | 1.6 | 16.1 | 0.00 | 0.00 | 0.00 | 39 | 1012.1 |
| 20260504014349 | 13 | 275 | 0.0 | 20.9 | 0.00 | 0.00 | 0.00 | 38 | 1012.1 |
| 20260504013326 | 13 | 313 | 3.2 | 19.3 | 0.00 | 0.00 | 0.00 | 37 | 1011.9 |
| 20260504012324 | 13 | 47 | 1.6 | 16.1 | 0.00 | 0.00 | 0.00 | 37 | 1011.6 |
| 20260504011348 | 13 | 173 | 4.8 | 19.3 | 0.00 | 0.00 | 0.00 | 37 | 1011.4 |
| 20260504010326 | 13 | 279 | 3.2 | 20.9 | 0.00 | 0.00 | 0.00 | 37 | 1011.3 |
| 20260504005330 | 14 | 276 | 1.6 | 17.7 | 0.00 | 0.00 | 0.00 | 39 | 1011.3 |
| 20260504004333 | 14 | 279 | 3.2 | 22.5 | 0.00 | 0.00 | 0.00 | 38 | 1011.3 |
| 20260504003355 | 14 | 294 | 4.8 | 29.0 | 0.00 | 0.00 | 0.00 | 39 | 1011.2 |
| 20260504002337 | 14 | 133 | 1.6 | 19.3 | 0.00 | 0.00 | 0.00 | 39 | 1011.2 |
| 20260504001332 | 14 | 220 | 0.0 | 17.7 | 0.00 | 0.00 | 0.00 | 39 | 1011.1 |
| 20260504000357 | 14 | 290 | 1.6 | 17.7 | 0.00 | 0.00 | 0.00 | 39 | 1011.0 |
| 20260503235332 | 14 | 287 | 1.6 | 14.5 | 0.00 | 0.00 | 0.00 | 39 | 1010.9 |
| 20260503234329 | 15 | 236 | 1.6 | 14.5 | 0.00 | 0.00 | 0.00 | 39 | 1010.8 |
| 20260503233353 | 15 | 342 | 0.0 | 14.5 | 0.00 | 0.00 | 0.00 | 38 | 1010.7 |
| 20260503232330 | 15 | 294 | 3.2 | 24.1 | 0.00 | 0.00 | 0.00 | 37 | 1010.6 |
| 20260503231331 | 15 | 26 | 1.6 | 12.9 | 0.00 | 0.00 | 0.00 | 36 | 1010.5 |
| 20260503230338 | 16 | 23 | 1.6 | 19.3 | 0.00 | 0.00 | 0.00 | 35 | 1010.5 |
| 20260503225356 | 16 | 84 | 4.8 | 22.5 | 0.00 | 0.00 | 0.00 | 34 | 1010.2 |
| 20260503224340 | 16 | 277 | 3.2 | 22.5 | 0.00 | 0.00 | 0.00 | 34 | 1010.2 |
| 20260503223339 | 16 | 31 | 3.2 | 30.6 | 0.00 | 0.00 | 0.00 | 34 | 1010.2 |
| 20260503222329 | 16 | 273 | 3.2 | 19.3 | 0.00 | 0.00 | 0.00 | 34 | 1010.2 |
| 20260503221331 | 16 | 300 | 3.2 | 25.7 | 0.00 | 0.00 | 0.00 | 34 | 1010.1 |
| 20260503220338 | 16 | 254 | 6.4 | 29.0 | 0.00 | 0.00 | 0.00 | 34 | 1010.2 |
| 20260503215332 | 16 | 294 | 4.8 | 20.9 | 0.00 | 0.00 | 0.00 | 34 | 1010.1 |
| 20260503214356 | 16 | 297 | 3.2 | 30.6 | 0.00 | 0.00 | 0.00 | 35 | 1010.0 |
| 20260503213330 | 16 | 282 | 8.0 | 22.5 | 0.00 | 0.00 | 0.00 | 34 | 1010.0 |
| 20260503212354 | 16 | 232 | 4.8 | 20.9 | 0.00 | 0.00 | 0.00 | 35 | 1010.1 |
| 20260503211327 | 16 | 284 | 4.8 | 22.5 | 0.00 | 0.00 | 0.00 | 35 | 1010.1 |
| 20260503210332 | 16 | 297 | 6.4 | 29.0 | 0.00 | 0.00 | 0.00 | 35 | 1010.1 |
| 20260503205326 | 16 | 283 | 3.2 | 16.1 | 0.00 | 0.00 | 0.00 | 35 | 1010.0 |
| 20260503204349 | 16 | 328 | 1.6 | 20.9 | 0.00 | 0.00 | 0.00 | 34 | 1010.0 |
| 20260503203353 | 16 | 268 | 3.2 | 20.9 | 0.00 | 0.00 | 0.00 | 34 | 1010.0 |
| 20260503202328 | 16 | 317 | 1.6 | 19.3 | 0.00 | 0.00 | 0.00 | 34 | 1009.9 |
| 20260503201412 | 16 | 70 | 1.6 | 19.3 | 0.00 | 0.00 | 0.00 | 34 | 1009.9 |
| 20260503200351 | 17 | 294 | 3.2 | 19.3 | 0.00 | 0.00 | 0.00 | 32 | 1009.8 |
| 20260503195408 | 17 | 275 | 6.4 | 25.7 | 0.00 | 0.00 | 0.00 | 32 | 1009.7 |
| 20260503194335 | 17 | 292 | 4.8 | 27.4 | 0.00 | 0.00 | 0.00 | 32 | 1009.6 |
| 20260503193331 | 18 | 287 | 3.2 | 24.1 | 0.00 | 0.00 | 0.00 | 32 | 1009.6 |
| 20260503192326 | 19 | 344 | 8.0 | 19.3 | 0.00 | 0.00 | 0.00 | 30 | 1009.5 |
| 20260503191351 | 18 | 296 | 4.8 | 16.1 | 0.00 | 0.00 | 0.00 | 30 | 1009.6 |
| 20260503190329 | 19 | 265 | 1.6 | 19.3 | 0.00 | 0.00 | 0.00 | 30 | 1009.6 |
| 20260503185329 | 19 | 279 | 6.4 | 17.7 | 0.00 | 0.00 | 0.00 | 29 | 1009.6 |
| 20260503184411 | 19 | 298 | 4.8 | 25.7 | 0.00 | 0.00 | 0.00 | 30 | 1009.7 |
| 20260503183349 | 19 | 333 | 3.2 | 16.1 | 0.00 | 0.00 | 0.00 | 31 | 1009.5 |
| 20260503182351 | 19 | 317 | 4.8 | 19.3 | 0.00 | 0.00 | 0.00 | 31 | 1009.6 |
| 20260503181348 | 19 | 300 | 3.2 | 16.1 | 0.00 | 0.00 | 0.00 | 31 | 1009.6 |
| 20260503180353 | 19 | 324 | 6.4 | 25.7 | 0.00 | 0.00 | 0.00 | 31 | 1009.6 |
| 20260503175353 | 19 | 225 | 8.0 | 24.1 | 0.00 | 0.00 | 0.00 | 31 | 1009.8 |
| 20260503174331 | 19 | 291 | 4.8 | 24.1 | 0.00 | 0.00 | 0.00 | 31 | 1009.7 |
| 20260503173356 | 19 | 34 | 3.2 | 22.5 | 0.00 | 0.00 | 0.00 | 31 | 1009.6 |
| 20260503172331 | 19 | 298 | 3.2 | 19.3 | 0.00 | 0.00 | 0.00 | 31 | 1009.6 |
| 20260503171330 | 19 | 306 | 3.2 | 16.1 | 0.00 | 0.00 | 0.00 | 32 | 1009.5 |
| 20260503170332 | 18 | 320 | 6.4 | 20.9 | 0.00 | 0.00 | 0.00 | 34 | 1009.5 |
| 20260503150335 | 17 | 243 | 4.8 | 20.9 | 0.00 | 0.00 | 0.00 | 40 | 1009.2 |
| 20260503131334 | 11 | 275 | 0.0 | 3.2 | 0.00 | 0.00 | 0.00 | 49 | 1008.7 |
| 20260503130331 | 11 | 190 | 0.0 | 3.2 | 0.00 | 0.00 | 0.00 | 50 | 1008.7 |
| 20260503110325 | 11 | 206 | 0.0 | 1.6 | 0.00 | 0.00 | 0.00 | 47 | 1008.9 |
| 20260503090325 | 12 | 184 | 0.0 | 1.6 | 0.00 | 0.00 | 0.00 | 44 | 1009.3 |